| time (UTC) | temp F | wind direction | speed knots | gust knots | rain 1hr in | rain 24hr in | rain mn in | humidity % | barometer mb |
| 20260506032705 | 48 | 343 | 0.9 | 4.3 | 0.01 | 0.06 | 0.03 | 78 | 1004.5 |
| 20260506031708 | 48 | 343 | 1.7 | 5.2 | 0.01 | 0.06 | 0.03 | 78 | 1004.5 |
| 20260506031205 | 48 | 344 | 1.7 | 5.2 | 0.01 | 0.06 | 0.03 | 78 | 1004.5 |
| 20260506030705 | 48 | 344 | 1.7 | 4.3 | 0.01 | 0.06 | 0.03 | 78 | 1004.5 |
| 20260506030205 | 48 | 344 | 0.9 | 5.2 | 0.01 | 0.06 | 0.03 | 78 | 1004.6 |
| 20260506025705 | 48 | 344 | 0.9 | 5.2 | 0.01 | 0.06 | 0.03 | 78 | 1004.6 |
| 20260506025206 | 48 | 344 | 1.7 | 7.0 | 0.00 | 0.05 | 0.02 | 78 | 1004.7 |
| 20260506024705 | 48 | 343 | 1.7 | 7.0 | 0.00 | 0.05 | 0.02 | 78 | 1004.7 |
| 20260506024205 | 48 | 343 | 1.7 | 7.0 | 0.00 | 0.05 | 0.02 | 78 | 1004.7 |
| 20260506023705 | 48 | 342 | 1.7 | 3.5 | 0.00 | 0.05 | 0.02 | 78 | 1004.7 |
| 20260506023207 | 48 | 342 | 0.9 | 3.5 | 0.00 | 0.06 | 0.02 | 78 | 1004.8 |
| 20260506022705 | 48 | 342 | 1.7 | 3.5 | 0.00 | 0.06 | 0.02 | 78 | 1004.8 |
| 20260506022205 | 48 | 342 | 1.7 | 7.0 | 0.00 | 0.06 | 0.02 | 78 | 1004.8 |
| 20260506021705 | 48 | 342 | 1.7 | 7.0 | 0.00 | 0.06 | 0.02 | 78 | 1004.8 |
| 20260506021205 | 48 | 342 | 1.7 | 7.0 | 0.01 | 0.06 | 0.02 | 78 | 1004.8 |
| 20260506020705 | 48 | 347 | 1.7 | 4.3 | 0.01 | 0.06 | 0.02 | 78 | 1004.8 |
| 20260506020206 | 48 | 347 | 1.7 | 4.3 | 0.01 | 0.06 | 0.02 | 78 | 1004.8 |
| 20260506015205 | 48 | 347 | 1.7 | 7.0 | 0.01 | 0.06 | 0.02 | 78 | 1004.9 |
| 20260506014705 | 48 | 347 | 1.7 | 7.0 | 0.01 | 0.06 | 0.02 | 78 | 1004.9 |
| 20260506014206 | 48 | 347 | 2.6 | 4.3 | 0.01 | 0.06 | 0.02 | 78 | 1004.9 |
| 20260506013705 | 48 | 346 | 1.7 | 4.3 | 0.01 | 0.06 | 0.02 | 78 | 1004.9 |
| 20260506013206 | 48 | 346 | 2.6 | 4.3 | 0.01 | 0.06 | 0.02 | 78 | 1005.0 |
| 20260506012705 | 48 | 346 | 2.6 | 7.8 | 0.01 | 0.06 | 0.02 | 78 | 1005.0 |
| 20260506012205 | 48 | 346 | 1.7 | 7.8 | 0.01 | 0.06 | 0.02 | 78 | 1005.0 |
| 20260506011705 | 48 | 346 | 1.7 | 5.2 | 0.00 | 0.05 | 0.02 | 78 | 1005.0 |
| 20260506011205 | 48 | 345 | 2.6 | 5.2 | 0.01 | 0.05 | 0.02 | 78 | 1005.1 |
| 20260506010706 | 48 | 344 | 1.7 | 5.2 | 0.01 | 0.05 | 0.02 | 78 | 1005.1 |
| 20260506010205 | 48 | 344 | 1.7 | 5.2 | 0.01 | 0.05 | 0.02 | 78 | 1005.1 |
| 20260506005207 | 49 | 344 | 1.7 | 5.2 | 0.01 | 0.05 | 0.02 | 78 | 1005.2 |
| 20260506004705 | 48 | 343 | 2.6 | 5.2 | 0.01 | 0.05 | 0.02 | 78 | 1005.2 |
| 20260506004206 | 49 | 343 | 1.7 | 5.2 | 0.01 | 0.05 | 0.02 | 78 | 1005.2 |
| 20260506003205 | 49 | 342 | 1.7 | 7.8 | 0.01 | 0.05 | 0.02 | 78 | 1005.3 |
| 20260506002706 | 49 | 342 | 1.7 | 7.8 | 0.01 | 0.05 | 0.02 | 78 | 1005.3 |
| 20260506001705 | 49 | 350 | 1.7 | 5.2 | 0.00 | 0.04 | 0.01 | 78 | 1005.4 |
| 20260506001209 | 49 | 0 | 1.7 | 5.2 | 0.00 | 0.04 | 0.01 | 78 | 1005.4 |
| 20260506000706 | 49 | 0 | 1.7 | 3.5 | 0.00 | 0.04 | 0.01 | 78 | 1005.5 |
| 20260505235705 | 49 | 0 | 1.7 | 4.3 | 0.00 | 0.04 | 0.01 | 78 | 1005.6 |
| 20260505235205 | 49 | 0 | 1.7 | 4.3 | 0.01 | 0.04 | 0.01 | 78 | 1005.7 |
| 20260505234706 | 49 | 0 | 1.7 | 4.3 | 0.01 | 0.04 | 0.01 | 78 | 1005.7 |
| 20260505233205 | 49 | 0 | 1.7 | 5.2 | 0.01 | 0.04 | 0.01 | 78 | 1005.8 |
| 20260505232706 | 49 | 0 | 1.7 | 5.2 | 0.01 | 0.04 | 0.01 | 78 | 1005.7 |
| 20260505232228 | 49 | 0 | 1.7 | 5.2 | 0.01 | 0.04 | 0.01 | 78 | 1005.8 |
| 20260505231205 | 49 | 0 | 0.9 | 3.5 | 0.01 | 0.04 | 0.01 | 78 | 1005.9 |
| 20260505230706 | 49 | 0 | 0.9 | 3.5 | 0.01 | 0.04 | 0.01 | 78 | 1005.9 |
| 20260505230206 | 49 | 0 | 0.9 | 3.5 | 0.01 | 0.04 | 0.01 | 78 | 1006.0 |
| 20260505225705 | 49 | 0 | 0.9 | 5.2 | 0.02 | 0.04 | 0.01 | 78 | 1006.0 |
| 20260505225205 | 49 | 0 | 0.9 | 5.2 | 0.01 | 0.03 | 0.00 | 78 | 1006.0 |
| 20260505224705 | 49 | 0 | 1.7 | 5.2 | 0.01 | 0.03 | 0.00 | 78 | 1006.0 |
| 20260505224205 | 49 | 0 | 2.6 | 5.2 | 0.01 | 0.03 | 0.00 | 78 | 1006.0 |
| 20260505223705 | 49 | 0 | 1.7 | 7.0 | 0.01 | 0.03 | 0.00 | 78 | 1006.0 |
| 20260505223205 | 49 | 0 | 1.7 | 7.0 | 0.01 | 0.03 | 0.00 | 78 | 1006.1 |
| 20260505222705 | 49 | 0 | 2.6 | 5.2 | 0.01 | 0.03 | 0.00 | 78 | 1006.1 |
| 20260505222205 | 49 | 0 | 1.7 | 4.3 | 0.01 | 0.03 | 0.00 | 78 | 1006.1 |
| 20260505221205 | 49 | 0 | 1.7 | 5.2 | 0.01 | 0.03 | 0.00 | 78 | 1006.1 |
| 20260505220705 | 49 | 0 | 1.7 | 5.2 | 0.01 | 0.03 | 0.00 | 78 | 1006.2 |
| 20260505220206 | 49 | 0 | 1.7 | 5.2 | 0.01 | 0.03 | 0.03 | 78 | 1006.1 |
| 20260505215705 | 49 | 355 | 0.9 | 7.0 | 0.00 | 0.02 | 0.02 | 78 | 1006.1 |
| 20260505215206 | 49 | 355 | 1.7 | 7.8 | 0.00 | 0.02 | 0.02 | 78 | 1006.2 |
| 20260505214206 | 49 | 355 | 2.6 | 7.8 | 0.01 | 0.02 | 0.02 | 79 | 1006.3 |
| 20260505213205 | 49 | 355 | 1.7 | 5.2 | 0.01 | 0.02 | 0.02 | 79 | 1006.3 |
| 20260505212205 | 49 | 355 | 1.7 | 5.2 | 0.01 | 0.02 | 0.02 | 79 | 1006.3 |
| 20260505211705 | 49 | 355 | 2.6 | 7.0 | 0.01 | 0.02 | 0.02 | 79 | 1006.3 |
| 20260505211205 | 49 | 355 | 2.6 | 7.0 | 0.01 | 0.02 | 0.02 | 79 | 1006.4 |
| 20260505210205 | 49 | 355 | 1.7 | 4.3 | 0.01 | 0.03 | 0.02 | 79 | 1006.4 |
| 20260505205705 | 50 | 355 | 1.7 | 4.3 | 0.01 | 0.03 | 0.02 | 79 | 1006.5 |
| 20260505205210 | 50 | 355 | 0.9 | 5.2 | 0.01 | 0.03 | 0.02 | 79 | 1006.5 |
| 20260505204707 | 50 | 355 | 1.7 | 5.2 | 0.00 | 0.02 | 0.02 | 79 | 1006.5 |
| 20260505204206 | 50 | 355 | 1.7 | 5.2 | 0.00 | 0.02 | 0.02 | 79 | 1006.5 |
| 20260505203705 | 50 | 355 | 2.6 | 4.3 | 0.00 | 0.02 | 0.02 | 79 | 1006.6 |
| 20260505203205 | 50 | 355 | 1.7 | 4.3 | 0.01 | 0.02 | 0.02 | 79 | 1006.6 |
| 20260505202205 | 50 | 355 | 1.7 | 4.3 | 0.01 | 0.02 | 0.02 | 79 | 1006.5 |
| 20260505200706 | 50 | 355 | 0.9 | 5.2 | 0.01 | 0.02 | 0.02 | 79 | 1006.5 |
| 20260505200205 | 50 | 355 | 1.7 | 5.2 | 0.01 | 0.02 | 0.02 | 79 | 1006.4 |
| 20260505195705 | 50 | 355 | 1.7 | 5.2 | 0.01 | 0.02 | 0.02 | 79 | 1006.4 |
| 20260505194706 | 50 | 355 | 1.7 | 5.2 | 0.01 | 0.02 | 0.02 | 80 | 1006.4 |
| 20260505194206 | 50 | 355 | 0.9 | 5.2 | 0.01 | 0.02 | 0.02 | 79 | 1006.4 |
| 20260505192705 | 50 | 0 | 1.7 | 5.2 | 0.00 | 0.02 | 0.01 | 80 | 1006.4 |
| 20260505192206 | 50 | 355 | 1.7 | 5.2 | 0.00 | 0.02 | 0.01 | 80 | 1006.3 |
| 20260505191705 | 50 | 355 | 1.7 | 5.2 | 0.00 | 0.02 | 0.01 | 80 | 1006.3 |
| 20260505191205 | 50 | 355 | 1.7 | 2.6 | 0.00 | 0.02 | 0.01 | 80 | 1006.3 |
| 20260505190705 | 50 | 0 | 0.9 | 2.6 | 0.00 | 0.02 | 0.01 | 80 | 1006.3 |
| 20260505185705 | 50 | 351 | 0.9 | 7.0 | 0.00 | 0.02 | 0.01 | 80 | 1006.2 |
| 20260505185206 | 50 | 351 | 2.6 | 7.0 | 0.00 | 0.03 | 0.01 | 80 | 1006.2 |
| 20260505184705 | 50 | 351 | 1.7 | 5.2 | 0.00 | 0.03 | 0.01 | 80 | 1006.2 |
| 20260505184206 | 50 | 355 | 1.7 | 5.2 | 0.00 | 0.03 | 0.01 | 80 | 1006.2 |
| 20260505182705 | 51 | 355 | 0.9 | 3.5 | 0.00 | 0.03 | 0.01 | 81 | 1006.2 |
| 20260505181208 | 51 | 355 | 1.7 | 5.2 | 0.00 | 0.03 | 0.01 | 81 | 1006.2 |
| 20260505180705 | 51 | 355 | 1.7 | 5.2 | 0.00 | 0.03 | 0.01 | 81 | 1006.3 |
| 20260505180205 | 51 | 355 | 2.6 | 4.3 | 0.00 | 0.04 | 0.01 | 81 | 1006.2 |
| 20260505175705 | 51 | 355 | 1.7 | 4.3 | 0.00 | 0.04 | 0.01 | 82 | 1006.3 |
| 20260505174705 | 51 | 355 | 0.9 | 3.5 | 0.00 | 0.04 | 0.01 | 82 | 1006.3 |
| 20260505174205 | 51 | 355 | 0.9 | 4.3 | 0.00 | 0.04 | 0.01 | 82 | 1006.3 |
| 20260505173205 | 51 | 355 | 0.9 | 4.3 | 0.00 | 0.05 | 0.01 | 82 | 1006.5 |
| 20260505171207 | 51 | 355 | 1.7 | 5.2 | 0.00 | 0.05 | 0.01 | 82 | 1006.5 |
| 20260505170706 | 51 | 355 | 0.9 | 5.2 | 0.00 | 0.05 | 0.01 | 82 | 1006.4 |
| 20260505170205 | 51 | 355 | 1.7 | 5.2 | 0.00 | 0.05 | 0.01 | 82 | 1006.5 |
| 20260505165705 | 51 | 355 | 1.7 | 7.0 | 0.00 | 0.05 | 0.01 | 83 | 1006.4 |
| 20260505165208 | 51 | 355 | 1.7 | 7.0 | 0.00 | 0.06 | 0.01 | 83 | 1006.5 |
| 20260505164706 | 51 | 355 | 1.7 | 5.2 | 0.00 | 0.06 | 0.01 | 83 | 1006.5 |
| 20260505164205 | 51 | 355 | 0.9 | 5.2 | 0.00 | 0.06 | 0.01 | 83 | 1006.5 |
| 20260505163706 | 51 | 355 | 0.9 | 3.5 | 0.00 | 0.06 | 0.01 | 82 | 1006.5 |
| 20260505163205 | 52 | 355 | 0.9 | 3.5 | 0.00 | 0.06 | 0.01 | 82 | 1006.5 |
| 20260505162705 | 52 | 355 | 0.9 | 2.6 | 0.00 | 0.06 | 0.01 | 82 | 1006.5 |
| 20260505162205 | 52 | 355 | 0.9 | 4.3 | 0.00 | 0.06 | 0.01 | 82 | 1006.6 |
| 20260505161205 | 52 | 355 | 0.9 | 5.2 | 0.00 | 0.06 | 0.01 | 83 | 1006.5 |
| 20260505160205 | 52 | 355 | 1.7 | 7.0 | 0.00 | 0.06 | 0.01 | 83 | 1006.6 |
| 20260505153205 | 52 | 5 | 1.7 | 7.0 | 0.00 | 0.07 | 0.01 | 83 | 1006.6 |
| 20260505152704 | 52 | 5 | 2.6 | 7.8 | 0.00 | 0.08 | 0.01 | 83 | 1006.6 |
| 20260505152205 | 52 | 5 | 2.6 | 7.8 | 0.00 | 0.08 | 0.01 | 83 | 1006.6 |
| 20260505151705 | 52 | 0 | 3.5 | 7.8 | 0.00 | 0.08 | 0.01 | 83 | 1006.6 |
| 20260505151228 | 52 | 355 | 2.6 | 7.0 | 0.00 | 0.08 | 0.01 | 83 | 1006.6 |
| 20260505150705 | 52 | 355 | 2.6 | 7.8 | 0.00 | 0.08 | 0.01 | 83 | 1006.6 |
| 20260505150205 | 52 | 355 | 2.6 | 7.8 | 0.00 | 0.08 | 0.01 | 83 | 1006.7 |
| 20260505140205 | 53 | 355 | 2.6 | 7.8 | 0.00 | 0.09 | 0.01 | 82 | 1006.8 |
| 20260505130205 | 54 | 355 | 1.7 | 5.2 | 0.00 | 0.09 | 0.01 | 82 | 1007.3 |
| 20260505124707 | 54 | 0 | 1.7 | 7.0 | 0.00 | 0.09 | 0.01 | 82 | 1007.4 |
| 20260505124205 | 54 | 5 | 1.7 | 7.0 | 0.00 | 0.09 | 0.01 | 82 | 1007.4 |
| 20260505123705 | 54 | 5 | 2.6 | 7.0 | 0.00 | 0.09 | 0.01 | 82 | 1007.4 |
| 20260505123205 | 54 | 5 | 2.6 | 6.1 | 0.00 | 0.09 | 0.01 | 82 | 1007.4 |
| 20260505122706 | 54 | 5 | 1.7 | 6.1 | 0.00 | 0.09 | 0.01 | 82 | 1007.4 |
| 20260505122205 | 54 | 5 | 0.9 | 7.0 | 0.00 | 0.09 | 0.01 | 82 | 1007.5 |
| 20260505121705 | 54 | 9 | 1.7 | 7.8 | 0.00 | 0.09 | 0.01 | 81 | 1007.4 |
| 20260505121205 | 54 | 9 | 2.6 | 7.8 | 0.00 | 0.09 | 0.01 | 82 | 1007.4 |
| 20260505120206 | 54 | 17 | 2.6 | 7.0 | 0.00 | 0.09 | 0.01 | 81 | 1007.4 |
| 20260505115706 | 54 | 0 | 1.7 | 7.0 | 0.00 | 0.09 | 0.01 | 81 | 1007.5 |
| 20260505114706 | 54 | 355 | 2.6 | 7.0 | 0.00 | 0.09 | 0.01 | 82 | 1007.5 |
| 20260505114205 | 54 | 336 | 2.6 | 7.0 | 0.00 | 0.09 | 0.01 | 81 | 1007.5 |
| 20260505113705 | 55 | 355 | 1.7 | 7.0 | 0.00 | 0.09 | 0.01 | 81 | 1007.5 |
| 20260505113205 | 55 | 349 | 1.7 | 7.8 | 0.00 | 0.09 | 0.01 | 81 | 1007.5 |
| 20260505112707 | 54 | 349 | 2.6 | 7.8 | 0.00 | 0.09 | 0.01 | 81 | 1007.5 |
| 20260505112206 | 54 | 349 | 2.6 | 7.0 | 0.00 | 0.09 | 0.01 | 82 | 1007.5 |
| 20260505111704 | 55 | 342 | 2.6 | 7.0 | 0.00 | 0.09 | 0.01 | 82 | 1007.5 |
| 20260505111205 | 55 | 337 | 2.6 | 7.8 | 0.00 | 0.09 | 0.01 | 82 | 1007.5 |
| 20260505110705 | 55 | 331 | 2.6 | 7.8 | 0.00 | 0.09 | 0.01 | 82 | 1007.5 |
| 20260505110206 | 55 | 331 | 2.6 | 7.0 | 0.00 | 0.09 | 0.01 | 82 | 1007.6 |
| 20260505102206 | 57 | 11 | 3.5 | 8.7 | 0.00 | 0.09 | 0.01 | 83 | 1007.6 |
| 20260505101706 | 57 | 5 | 3.5 | 8.7 | 0.00 | 0.09 | 0.01 | 83 | 1007.6 |
| 20260505101205 | 57 | 5 | 3.5 | 8.7 | 0.00 | 0.09 | 0.01 | 83 | 1007.7 |
| 20260505100706 | 58 | 346 | 2.6 | 7.8 | 0.00 | 0.09 | 0.01 | 83 | 1007.6 |
| 20260505100206 | 58 | 0 | 2.6 | 7.0 | 0.00 | 0.09 | 0.01 | 83 | 1007.6 |
| 20260505095705 | 59 | 0 | 1.7 | 4.3 | 0.00 | 0.09 | 0.01 | 83 | 1007.6 |
| 20260505095211 | 59 | 5 | 0.9 | 3.5 | 0.00 | 0.09 | 0.01 | 83 | 1007.5 |
| 20260505094705 | 59 | 5 | 0.0 | 3.5 | 0.00 | 0.09 | 0.01 | 83 | 1007.5 |
| 20260505094205 | 59 | 5 | 0.0 | 4.3 | 0.00 | 0.09 | 0.01 | 83 | 1007.6 |
| 20260505093705 | 59 | 5 | 0.9 | 4.3 | 0.00 | 0.09 | 0.01 | 83 | 1007.6 |
| 20260505093205 | 58 | 5 | 0.9 | 2.6 | 0.00 | 0.09 | 0.01 | 83 | 1007.7 |
| 20260505092206 | 58 | 5 | 0.0 | 2.6 | 0.00 | 0.09 | 0.01 | 83 | 1007.7 |
| 20260505091706 | 58 | 5 | 0.0 | 2.6 | 0.00 | 0.09 | 0.01 | 83 | 1007.8 |
| 20260505090705 | 58 | 10 | 0.0 | 3.5 | 0.00 | 0.09 | 0.01 | 82 | 1007.9 |
| 20260505090205 | 57 | 10 | 0.0 | 3.5 | 0.00 | 0.09 | 0.01 | 81 | 1007.8 |
| 20260505085705 | 57 | 10 | 0.9 | 2.6 | 0.00 | 0.09 | 0.01 | 81 | 1007.9 |
| 20260505085205 | 57 | 10 | 0.9 | 2.6 | 0.00 | 0.09 | 0.01 | 81 | 1007.9 |
| 20260505084706 | 57 | 10 | 0.9 | 2.6 | 0.00 | 0.09 | 0.01 | 80 | 1007.8 |
| 20260505084205 | 57 | 10 | 0.0 | 2.6 | 0.00 | 0.09 | 0.01 | 80 | 1007.9 |
| 20260505083705 | 57 | 10 | 0.0 | 1.7 | 0.00 | 0.09 | 0.01 | 80 | 1007.8 |
| 20260505083205 | 57 | 10 | 0.0 | 1.7 | 0.00 | 0.09 | 0.01 | 79 | 1007.8 |
| 20260505081705 | 56 | 10 | 0.0 | 1.7 | 0.00 | 0.09 | 0.01 | 79 | 1007.8 |
| 20260505081205 | 56 | 10 | 0.0 | 1.7 | 0.00 | 0.09 | 0.01 | 79 | 1007.8 |
| 20260505080705 | 56 | 10 | 0.0 | 1.7 | 0.00 | 0.09 | 0.01 | 79 | 1007.9 |
| 20260505080205 | 56 | 10 | 0.0 | 3.5 | 0.00 | 0.09 | 0.01 | 79 | 1007.9 |
| 20260505075705 | 56 | 10 | 0.0 | 3.5 | 0.00 | 0.09 | 0.01 | 78 | 1007.9 |
| 20260505075205 | 56 | 10 | 0.0 | 1.7 | 0.00 | 0.09 | 0.01 | 78 | 1007.9 |
| 20260505074706 | 56 | 10 | 0.0 | 1.7 | 0.00 | 0.09 | 0.01 | 79 | 1008.0 |
| 20260505074205 | 56 | 10 | 0.0 | 0.9 | 0.00 | 0.09 | 0.01 | 78 | 1007.9 |
| 20260505073705 | 56 | 10 | 0.0 | 0.9 | 0.00 | 0.09 | 0.01 | 78 | 1008.0 |
| 20260505073205 | 56 | 10 | 0.0 | 0.9 | 0.00 | 0.09 | 0.01 | 78 | 1008.0 |
| 20260505072705 | 56 | 10 | 0.0 | 0.9 | 0.00 | 0.09 | 0.01 | 78 | 1008.0 |
| 20260505072206 | 56 | 10 | 0.0 | 0.0 | 0.00 | 0.09 | 0.01 | 78 | 1008.0 |
| 20260505071705 | 56 | 10 | 0.0 | 0.0 | 0.00 | 0.09 | 0.01 | 78 | 1008.0 |
| 20260505070205 | 55 | 10 | 0.0 | 0.9 | 0.00 | 0.09 | 0.01 | 78 | 1008.0 |
| 20260505065705 | 55 | 10 | 0.0 | 0.9 | 0.00 | 0.09 | 0.01 | 78 | 1008.0 |
| 20260505065205 | 55 | 10 | 0.0 | 0.9 | 0.00 | 0.09 | 0.01 | 78 | 1008.0 |
| 20260505064705 | 55 | 10 | 0.0 | 0.9 | 0.00 | 0.09 | 0.01 | 79 | 1008.1 |
| 20260505064205 | 56 | 10 | 0.0 | 0.9 | 0.00 | 0.09 | 0.01 | 78 | 1008.1 |
| 20260505063706 | 56 | 10 | 0.0 | 0.9 | 0.00 | 0.09 | 0.01 | 78 | 1008.2 |
| 20260505062705 | 56 | 10 | 0.0 | 0.0 | 0.00 | 0.09 | 0.01 | 78 | 1008.2 |
| 20260505061705 | 55 | 10 | 0.0 | 0.0 | 0.00 | 0.09 | 0.01 | 78 | 1008.3 |
| 20260505061205 | 55 | 10 | 0.0 | 0.0 | 0.00 | 0.09 | 0.01 | 78 | 1008.3 |
| 20260505060705 | 55 | 10 | 0.0 | 0.0 | 0.00 | 0.09 | 0.01 | 78 | 1008.3 |
| 20260505060208 | 55 | 10 | 0.0 | 0.0 | 0.00 | 0.09 | 0.01 | 78 | 1008.3 |
| 20260505055705 | 55 | 10 | 0.0 | 0.0 | 0.00 | 0.09 | 0.01 | 79 | 1008.3 |
| 20260505055205 | 55 | 10 | 0.0 | 0.9 | 0.00 | 0.09 | 0.01 | 78 | 1008.3 |
| 20260505054705 | 55 | 10 | 0.0 | 1.7 | 0.00 | 0.09 | 0.01 | 78 | 1008.2 |
| 20260505054205 | 55 | 10 | 0.0 | 1.7 | 0.00 | 0.09 | 0.01 | 78 | 1008.2 |
| 20260505053705 | 55 | 10 | 0.0 | 1.7 | 0.00 | 0.09 | 0.01 | 78 | 1008.2 |
| 20260505052705 | 55 | 10 | 0.0 | 0.9 | 0.00 | 0.09 | 0.01 | 78 | 1008.2 |
| 20260505052205 | 55 | 10 | 0.0 | 0.9 | 0.00 | 0.09 | 0.01 | 78 | 1008.2 |
| 20260505051706 | 55 | 10 | 0.0 | 0.0 | 0.00 | 0.09 | 0.01 | 79 | 1008.2 |
| 20260505050705 | 55 | 10 | 0.0 | 0.0 | 0.00 | 0.09 | 0.01 | 79 | 1008.2 |
| 20260505050205 | 55 | 10 | 0.0 | 0.0 | 0.00 | 0.09 | 0.01 | 79 | 1008.2 |
| 20260505041705 | 55 | 10 | 0.0 | 0.0 | 0.00 | 0.09 | 0.01 | 79 | 1008.2 |
| 20260505040705 | 55 | 10 | 0.0 | 0.9 | 0.00 | 0.09 | 0.01 | 79 | 1008.3 |
| 20260505040205 | 55 | 10 | 0.0 | 2.6 | 0.00 | 0.09 | 0.01 | 79 | 1008.3 |
| 20260505035705 | 55 | 10 | 0.0 | 2.6 | 0.00 | 0.09 | 0.01 | 79 | 1008.3 |
| 20260505035205 | 55 | 10 | 0.0 | 1.7 | 0.00 | 0.09 | 0.01 | 79 | 1008.3 |
| 20260505034705 | 55 | 10 | 0.0 | 1.7 | 0.00 | 0.09 | 0.01 | 79 | 1008.3 |
| 20260505034205 | 55 | 10 | 0.0 | 1.7 | 0.00 | 0.09 | 0.01 | 79 | 1008.3 |
| 20260505033705 | 55 | 10 | 0.0 | 0.9 | 0.00 | 0.09 | 0.01 | 79 | 1008.3 |
| 20260505033206 | 55 | 10 | 0.0 | 0.9 | 0.01 | 0.09 | 0.01 | 79 | 1008.4 |